TimeEDT,TemperatureF,Dew PointF,Humidity,Sea Level PressureIn,VisibilityMPH,Wind Direction,Wind SpeedMPH,Gust SpeedMPH,PrecipitationIn,Events,Conditions,WindDirDegrees,DateUTC
12:15 AM,66.9,62.2,85,30.00,10.0,Calm,Calm,-,N/A,,Overcast,0,2013-09-21 04:15:00
12:35 AM,66.4,62.1,86,29.99,10.0,Calm,Calm,-,N/A,,Overcast,0,2013-09-21 04:35:00
12:55 AM,65.5,61.9,88,29.99,10.0,Calm,Calm,-,N/A,,Mostly Cloudy,0,2013-09-21 04:55:00
1:15 AM,65.1,61.9,89,29.98,10.0,East,3.5,-,N/A,,Mostly Cloudy,100,2013-09-21 05:15:00
1:35 AM,64.0,61.7,92,29.98,10.0,Calm,Calm,-,N/A,,Mostly Cloudy,0,2013-09-21 05:35:00
1:55 AM,63.5,61.3,93,29.98,7.0,Calm,Calm,-,N/A,,Mostly Cloudy,0,2013-09-21 05:55:00
2:15 AM,62.1,60.1,93,29.97,4.0,Calm,Calm,-,N/A,,Mostly Cloudy,0,2013-09-21 06:15:00
2:35 AM,61.7,59.9,94,29.97,7.0,Calm,Calm,-,N/A,,Mostly Cloudy,0,2013-09-21 06:35:00
2:55 AM,61.2,59.4,94,29.97,7.0,Calm,Calm,-,N/A,,Overcast,0,2013-09-21 06:55:00
3:15 AM,61.5,59.9,94,29.97,7.0,Calm,Calm,-,N/A,,Mostly Cloudy,0,2013-09-21 07:15:00
3:35 AM,61.0,59.4,94,29.97,7.0,Calm,Calm,-,N/A,,Overcast,0,2013-09-21 07:35:00
3:55 AM,61.3,59.9,95,29.96,7.0,Calm,Calm,-,N/A,,Mostly Cloudy,0,2013-09-21 07:55:00
4:15 AM,61.3,59.7,94,29.96,4.0,Calm,Calm,-,N/A,,Mostly Cloudy,0,2013-09-21 08:15:00
4:35 AM,60.8,59.4,95,29.96,7.0,Calm,Calm,-,N/A,,Mostly Cloudy,0,2013-09-21 08:35:00
4:55 AM,61.0,59.4,94,29.95,5.0,Calm,Calm,-,N/A,,Overcast,0,2013-09-21 08:55:00
5:15 AM,60.4,59.0,95,29.95,2.0,Calm,Calm,-,N/A,,Mostly Cloudy,0,2013-09-21 09:15:00
5:35 AM,59.9,58.5,95,29.94,2.5,Calm,Calm,-,N/A,,Overcast,0,2013-09-21 09:35:00
5:55 AM,61.0,59.5,95,29.94,7.0,Calm,Calm,-,N/A,,Overcast,0,2013-09-21 09:55:00
6:15 AM,61.5,59.9,94,29.94,5.0,Calm,Calm,-,N/A,,Overcast,0,2013-09-21 10:15:00
6:35 AM,61.7,60.1,94,29.93,7.0,Calm,Calm,-,N/A,,Overcast,0,2013-09-21 10:35:00
6:55 AM,61.7,60.3,95,29.93,7.0,Calm,Calm,-,N/A,,Overcast,0,2013-09-21 10:55:00
7:15 AM,62.2,60.8,95,29.93,7.0,Calm,Calm,-,N/A,,Overcast,0,2013-09-21 11:15:00
7:35 AM,62.6,60.8,94,29.93,7.0,Calm,Calm,-,N/A,,Overcast,0,2013-09-21 11:35:00
7:55 AM,63.1,61.0,93,29.92,10.0,Calm,Calm,-,N/A,,Overcast,0,2013-09-21 11:55:00
8:15 AM,63.9,61.3,91,29.93,10.0,Calm,Calm,-,N/A,,Overcast,0,2013-09-21 12:15:00
8:35 AM,64.4,61.7,91,29.93,10.0,Calm,Calm,-,N/A,,Overcast,0,2013-09-21 12:35:00
8:55 AM,64.8,61.9,90,29.93,7.0,Calm,Calm,-,N/A,,Light Drizzle,0,2013-09-21 12:55:00
9:15 AM,65.1,62.4,91,29.93,10.0,Calm,Calm,-,N/A,,Overcast,0,2013-09-21 13:15:00
9:35 AM,65.8,63.1,91,29.93,5.0,Calm,Calm,-,0.01,Rain,Rain,0,2013-09-21 13:35:00
9:55 AM,66.2,63.1,90,29.93,10.0,Calm,Calm,-,0.01,Rain,Light Rain,0,2013-09-21 13:55:00
10:15 AM,66.4,63.5,90,29.93,5.0,Calm,Calm,-,0.01,Rain,Rain,0,2013-09-21 14:15:00
10:35 AM,66.6,64.0,92,29.93,3.0,Calm,Calm,-,0.03,Rain,Rain,0,2013-09-21 14:35:00
10:55 AM,66.6,64.4,93,29.92,3.0,Calm,Calm,-,0.06,Rain,Rain,0,2013-09-21 14:55:00
11:15 AM,66.9,64.6,92,29.91,4.0,Calm,Calm,-,N/A,,Drizzle,0,2013-09-21 15:15:00
11:35 AM,67.1,64.8,92,29.91,5.0,ESE,3.5,-,0.01,,Overcast,120,2013-09-21 15:35:00
11:55 AM,67.8,65.7,93,29.90,4.0,Calm,Calm,-,0.01,Rain,Light Rain,0,2013-09-21 15:55:00
12:15 PM,68.9,66.4,92,29.89,10.0,SSE,4.6,-,N/A,,Overcast,160,2013-09-21 16:15:00
12:35 PM,69.3,66.6,91,29.89,7.0,SSE,3.5,-,N/A,Rain,Light Rain,160,2013-09-21 16:35:00
12:55 PM,69.8,66.9,91,29.88,10.0,Calm,Calm,-,N/A,,Overcast,0,2013-09-21 16:55:00
1:15 PM,69.8,67.1,91,29.87,5.0,Calm,Calm,-,N/A,,Drizzle,0,2013-09-21 17:15:00
1:35 PM,70.0,67.3,91,29.86,10.0,Calm,Calm,-,N/A,,Overcast,0,2013-09-21 17:35:00
1:55 PM,70.5,67.5,90,29.85,10.0,South,3.5,-,N/A,,Overcast,180,2013-09-21 17:55:00
2:15 PM,70.9,67.5,89,29.84,10.0,Calm,Calm,-,N/A,,Overcast,0,2013-09-21 18:15:00
2:35 PM,71.2,67.8,89,29.82,10.0,SE,3.5,-,N/A,Rain,Light Rain,130,2013-09-21 18:35:00
2:55 PM,72.1,68.5,88,29.82,10.0,Calm,Calm,-,N/A,,Mostly Cloudy,0,2013-09-21 18:55:00
3:15 PM,73.2,68.5,85,29.81,10.0,SSE,5.8,-,N/A,,Overcast,150,2013-09-21 19:15:00
3:35 PM,73.8,68.2,83,29.80,10.0,South,5.8,-,N/A,,Overcast,170,2013-09-21 19:35:00
3:55 PM,74.1,68.0,81,29.80,10.0,South,6.9,-,N/A,,Mostly Cloudy,170,2013-09-21 19:55:00
4:15 PM,73.9,67.8,81,29.79,10.0,SSE,5.8,-,N/A,,Mostly Cloudy,160,2013-09-21 20:15:00
4:35 PM,74.3,67.8,80,29.79,10.0,South,5.8,-,N/A,,Overcast,170,2013-09-21 20:35:00
4:55 PM,74.5,67.8,80,29.77,10.0,SSE,4.6,-,N/A,,Mostly Cloudy,150,2013-09-21 20:55:00
5:15 PM,74.3,68.2,81,29.77,10.0,SSE,4.6,-,N/A,,Scattered Clouds,160,2013-09-21 21:15:00
5:35 PM,73.6,68.2,83,29.77,10.0,SE,3.5,-,N/A,,Clear,140,2013-09-21 21:35:00
5:55 PM,73.4,68.4,84,29.76,10.0,Calm,Calm,-,N/A,,Scattered Clouds,0,2013-09-21 21:55:00
6:15 PM,72.9,68.2,85,29.76,10.0,SE,3.5,-,N/A,,Scattered Clouds,140,2013-09-21 22:15:00
6:35 PM,72.5,67.8,85,29.76,10.0,SSE,3.5,-,N/A,,Clear,150,2013-09-21 22:35:00
6:55 PM,72.1,67.6,86,29.76,10.0,SSE,3.5,-,N/A,,Mostly Cloudy,150,2013-09-21 22:55:00
7:15 PM,72.0,67.6,86,29.75,10.0,SSE,3.5,-,N/A,,Light Drizzle,160,2013-09-21 23:15:00
7:35 PM,71.8,67.8,87,29.75,10.0,SSE,3.5,-,N/A,,Light Drizzle,150,2013-09-21 23:35:00
7:55 PM,71.6,68.0,88,29.75,10.0,SSE,3.5,-,N/A,,Mostly Cloudy,160,2013-09-21 23:55:00
8:15 PM,71.6,68.0,88,29.75,10.0,Calm,Calm,-,N/A,,Scattered Clouds,0,2013-09-22 00:15:00
8:35 PM,71.6,68.0,88,29.76,10.0,SSE,3.5,-,N/A,,Scattered Clouds,160,2013-09-22 00:35:00
8:55 PM,71.6,68.0,88,29.76,10.0,South,3.5,-,N/A,Rain,Light Rain,180,2013-09-22 00:55:00
9:15 PM,71.4,68.2,89,29.76,10.0,SSE,3.5,-,N/A,Rain,Light Rain,160,2013-09-22 01:15:00
9:35 PM,71.2,68.4,91,29.76,10.0,SSE,4.6,-,0.01,,Light Drizzle,160,2013-09-22 01:35:00
9:55 PM,71.1,68.5,92,29.76,10.0,Calm,Calm,-,0.01,,Light Drizzle,0,2013-09-22 01:55:00
10:15 PM,71.1,68.9,93,29.76,10.0,South,3.5,-,N/A,,Light Drizzle,190,2013-09-22 02:15:00
10:35 PM,71.2,68.9,92,29.76,10.0,South,3.5,-,N/A,,Light Drizzle,190,2013-09-22 02:35:00
10:55 PM,71.2,68.9,92,29.76,10.0,South,3.5,-,N/A,Rain,Rain,190,2013-09-22 02:55:00
11:15 PM,71.2,68.9,92,29.75,7.0,Calm,Calm,-,N/A,Rain,Light Rain,0,2013-09-22 03:15:00
11:35 PM,71.1,68.9,93,29.74,7.0,SSE,3.5,-,0.01,,Light Drizzle,150,2013-09-22 03:35:00
11:55 PM,70.9,68.9,93,29.75,7.0,Calm,Calm,-,0.01,,Overcast,0,2013-09-22 03:55:00